Regional Weather Roundup
Issued by NWS

Home | Current Version | Previous Version | Graphics & Text | Print | Product List | Glossary On
Versions: 1 2 3 4 5 6 7 8 9 10 11 12 13 14 15 16 17 18 19 20 21 22 23 24 25 26 27 28 29 30 31 32 33 34 35 36 37 38 39 40 41 42 43 44 45 46 47 48 49 50
000
ASUS43 KBIS 202220
RWRND

NORTH DAKOTA REGIONAL WEATHER ROUNDUP
NATIONAL WEATHER SERVICE BISMARCK ND
500 PM CDT SUN APR 20 2014

NOTE: "FAIR" INDICATES FEW OR NO CLOUDS BELOW 12,000 FEET WITH NO
SIGNIFICANT WEATHER AND/OR OBSTRUCTIONS TO VISIBILITY.


NDZ001>003-009>011-017-202300-
NORTHWEST NORTH DAKOTA

CITY           SKY/WX    TMP DP  RH WIND       PRES   REMARKS
WILLISTON      MOSUNNY   67  26  21 W28G38    29.91R
MINOT          LGT RAIN  67  31  26 W26G38    29.85R
MINOT AFB      MOSUNNY   64  34  32 NW24G36   29.84R
$$

NDZ018>021-031>035-040>046-202300-
SOUTHWEST NORTH DAKOTA

CITY           SKY/WX    TMP DP  RH WIND       PRES   REMARKS
BISMARCK       CLOUDY    75  36  24 W24G31    29.86S
DICKINSON      MOSUNNY   68  23  18 W25G33    29.93R
GARRISON         N/A     70  31  23 NW25G35   29.87R
HETTINGER ARPT PTSUNNY   69  26  20 NW21G30   29.96R
$$

NDZ004>008-012>016-024-026-027-054-202300-
NORTHEAST NORTH DAKOTA

CITY           SKY/WX    TMP DP  RH WIND       PRES   REMARKS
GRAND FORKS    PTSUNNY   71  37  28 S13       29.89F
GRND FRKS AFB  PTSUNNY   73  37  27 S13       29.89F
DEVILS LAKE    CLOUDY    68  30  24 SW16      29.83F
$$

NDZ022-023-025-028>030-036>039-047>053-202300-
SOUTHEAST NORTH DAKOTA

CITY           SKY/WX    TMP DP  RH WIND       PRES   REMARKS
FARGO          MOSUNNY   76  29  17 SW13G18   29.91F
JAMESTOWN      PTSUNNY   74  32  21 SW16      29.87F
$$




USA.gov is the U.S. government's official web portal to all federal, state and local government web resources and services.